User: anonymous   Login
Location: Unspecified
(0.0000°N, 0.0000°E)
Time: 09:11:07
(UTC+00:00)
Language:

Mublcom - Orbit

View from above orbital plane
View from above orbital plane
View from above satellite
View from above satellite

Ground track
Ground track

The orbit data is extracted from the following two-line orbital elements,

1 25736U 99026B   24063.76205875  .00002001  00000-0  49890-3 0  9990
2 25736  97.7762 334.1482 0004697 347.4145  12.6934 14.52578277308332
Epoch (UTC): 03 March 2024 18:17:21
Eccentricity: 0.0004697
inclination: 97.7762°
perigee height: 714 km
apogee height: 720 km
right ascension of ascending node: 334.1482°
argument of perigee: 347.4145°
revolutions per day: 14.52578277
mean anomaly at epoch: 12.6934°
orbit number at epoch: 30833

The dashed part of the orbit path shows where the satellite is in the earth's shadow,  

DLR